Regional Weather Roundup
Issued by NWS

Home | Current Version | Previous Version | Graphics & Text | Print | Product List | Glossary On
Versions: 1 2 3 4 5 6 7 8 9 10 11 12 13 14 15 16 17 18 19 20 21 22 23 24 25 26 27 28 29 30 31 32 33 34 35 36 37 38 39 40 41 42 43 44 45 46 47 48 49 50
000
ASUS43 KMKX 062200
RWRWI

WISCONSIN REGIONAL WEATHER ROUNDUP
NATIONAL WEATHER SERVICE MILWAUKEE/SULLIVAN WI
500 PM CDT MON JUL 06 2015

NOTE: "FAIR" INDICATES FEW OR NO CLOUDS BELOW 12,000 FEET WITH NO
SIGNIFICANT WEATHER AND/OR OBSTRUCTIONS TO VISIBILITY.

WIZ001-002-006>008-014>016-023>028-062300-
NORTHWEST WISCONSIN

CITY           SKY/WX    TMP DP  RH WIND       PRES   REMARKS
SUPERIOR ARPT  CLOUDY    66  59  78 NE5       29.92F HAZE
ASHLAND        CLOUDY    62  60  93 N6        29.92S FOG
HAYWARD        CLOUDY    62  58  86 N6        29.94R FOG
SIREN          CLOUDY    67  58  70 N10G16    29.94S HAZE
CUMBERLAND     CLOUDY    63  55  77 N15G23    29.94R HAZE
RICE LAKE      CLOUDY    63  57  80 N12       29.94R HAZE
CHETEK         CLOUDY    64  59  84 N12G20    29.92R HAZE
LADYSMITH      CLOUDY    62  58  88 N14G21    29.91R FOG
EAU CLAIRE     NOT AVBL
MENOMONIE      CLOUDY    66  59  77 NW18      29.91R HAZE
NEW RICHMOND     N/A     66  58  75 N12G21    29.94S HAZE
OSCEOLA        MOSUNNY   68  60  74 NW9G16    29.96F HAZE
$$

WIZ003>005-009-010-017-018-062300-
NORTH CENTRAL WISCONSIN

CITY           SKY/WX    TMP DP  RH WIND       PRES   REMARKS
MANITOWISH WTR RAIN      57  57 100 N12       29.88F
ARBOR VITAE    LGT RAIN  59  58  94 N9G16     29.88S
WOODRUFF       LGT RAIN  59  58  94 N9G16     29.88S
RHINELANDER    LGT RAIN  59  57  93 N9G20     29.86R FOG
EAGLE RIVER    HVY RAIN  57  57 100 N13       29.87R
LAND O LAKES   RAIN      58  57  96 N10G18    29.89R
PHILLIPS       LGT RAIN  58  56  94 N9G18     29.88R
TOMAHAWK       LGT RAIN  59  57  93 N12G20    29.85R
MEDFORD        LGT RAIN  60  58  94 N16G28    29.84R
MERRILL        HVY RAIN  68  67  98 N23G37    29.78S
$$

WIZ029-030-035-036-043>047-062300-
CENTRAL WISCONSIN

CITY           SKY/WX    TMP DP  RH WIND       PRES   REMARKS
WAUSAU         CLOUDY    72  68  87 W13       29.78S
MOSINEE        NOT AVBL
MARSHFIELD     LGT RAIN  70  66  87 NW20      29.82R FOG
STEVENS POINT  RAIN      69  68  96 W13G22    29.81S
WAUPACA        CLOUDY    81  71  72 S13       29.79S HX  85
WAUTOMA        NOT AVBL
WISC RAPIDS    LGT RAIN  73  70  90 SW8       29.81S
CAMP DOUGLAS   LGT RAIN  75  75 100 SW12G20   29.81F
$$

WIZ011>013-019>022-031-037>040-048>050-062300-
NORTHEAST WISCONSIN

CITY           SKY/WX    TMP DP  RH WIND       PRES   REMARKS
ANTIGO         RAIN      72  70  94 S5        29.79F
SHAWANO        LGT RAIN  79  71  77 S3        29.78F HX  81
OCONTO         CLOUDY    77  75  94 S3        29.77F
STURGEON BAY   CLOUDY    66  63  88 S8        29.82F
GREEN BAY      CLOUDY    80  70  71 SW13      29.78F HX  83
MANITOWOC      NOT AVBL
APPLETON       PTSUNNY   79  66  65 S13G21    29.80F HX  81
CLINTONVILLE   LGT RAIN  75  70  83 S10       29.76F
OSHKOSH        CLOUDY    80  70  71 SW12G22   29.79F HX  83
$$

WIZ032>034-041-042-053>061-062300-
SOUTHWEST WISCONSIN

CITY           SKY/WX    TMP DP  RH WIND       PRES   REMARKS
LA CROSSE      LGT RAIN  70  67  90 NW18      29.82R
SPARTA         LGT RAIN  73  70  92 CALM      29.82F
VIROQUA        CLOUDY    74  72  93 SW8G17    29.83F
BOSCOBEL       PTSUNNY   79  71  76 SW7       29.81F HX  82
PRAIRIE DU CHI CLOUDY    78  69  72 SW5       29.81F HX  80
PLATTEVILLE    CLOUDY    78  71  79 S12G17    29.85F HX  80
$$

WIZ056-057-062-063-064-067-068-062300-
SOUTH CENTRAL WISCONSIN

CITY           SKY/WX    TMP DP  RH WIND       PRES   REMARKS
REEDSBURG      CLOUDY    74  71  88 SW8       29.82F
BARABOO/DELLS  CLOUDY    78  68  72 SW6       29.82F
LONE ROCK      NOT AVBL
MINERAL POINT  PTSUNNY   79  70  73 S14       29.86F HX  81
MADISON        CLOUDY    79  69  71 SW10G18   29.82F HX  81
MIDDLETON      PTSUNNY   80  68  67 SW12      29.84F HX  82
WATERTOWN      CLOUDY    79  75  87 SW9       29.83F HX  82
MONROE         PTSUNNY   77  70  78 S12       29.85F
JANESVILLE     MOSUNNY   79  70  73 SW10      29.85F HX  81
$$

WIZ051-052-058>065-066-070>072-062300-
SOUTHEAST WISCONSIN

CITY           SKY/WX    TMP DP  RH WIND       PRES   REMARKS
MILWAUKEE      CLOUDY    81  67  62 SW17G25   29.84S HX  83
WAUKESHA       PTSUNNY   75  68  78 S8        29.86S
MILWAUKEE/TIMM PTSUNNY   79  66  65 S10       29.84F HX  81
RACINE         CLOUDY    75  69  81 S8        29.87S
BURLINGTON     CLOUDY    74  67  80 SW7       29.86S
KENOSHA        CLOUDY    75  69  81 SW9       29.86S
FOND DU LAC    CLOUDY    81  71  71 S14G24    29.81F HX  85
SHEBOYGAN      CLOUDY    77  71  82 S12       29.81F
WEST BEND      CLOUDY    77  68  73 SW9       29.83F
JUNEAU         CLOUDY    80  71  74 SW14G20   29.85F HX  83
$$

LSZ147-162-062300-
LAKE SUPERIOR

STATION/POSITION TIME  TEMP    WIND        PRES    WAVE
                       AIR SEA DIR/SP/G            HT/PER
                 (UTC) (F)     (DEG/KT/KT) (MB)    (FT/S)
W MID LAKE BUOY  2050   51 39  320/  4/  6 1012.5S   0
DEVILS ISLAND    2100   58     270/  5/  6 1013.2R
PORT WING        2040   61     290/  3/  4 1013.5S
SAXON HARBOR     2100   59        CALM     1012.5
$$

LMZ867-665-643>646-062300-
LAKE MICHIGAN

STATION/POSITION TIME  TEMP    WIND        PRES    WAVE
                       AIR SEA DIR/SP/G            HT/PER
                 (UTC) (F)     (DEG/KT/KT) (MB)    (FT/S)
CHAMBERS ISLAND  2100   72     150/  5/ 10 1008.8
N MID LAKE BUOY  2050   60 56  220/ 17/ 21 1009.4F   3/ 5
NORTHPORT PIER   2100   68     160/  7/ 12 1008.8F
SISTER BAY       2114   70     180/ 16/ 20   N/A
ALGOMA LAKESHORE 2011          210/ 13/ 15   N/A
KEWAUNEE LAKESHO 2100   60     180/ 12/ 16 1009.2F
SHEBOYGAN LAKESH 2100   68     200/ 15/ 17 1010.2R
PORT WASHINGTON  2100   68     190/  5/ 11 1010.8
ATWATER BUOY     2100   65 59  160/ 12/ 16 1011.8R
MILWAUKEE LAKESH 2100   69     160/  9/ 10   N/A
KENOSHA   LAKESH 2100   66     180/ 13/ 17 1010.8F
$$

TC  - TEMPERATURE IN CELSIUS
VSB - VISIBILITY IN STATUTE MILES
WCI - WIND CHILL INDEX
HX  - HEAT INDEX



USA.gov is the U.S. government's official web portal to all federal, state and local government web resources and services.